• Join FlightAware (Why Join?)
  • Login
  • US Flag 
06:09AM EST


 

Airport Tracker/Info


-or-


 

Live Flight TrackerFlight Track Log ✈ SWA2436 ✈ 08-Feb-2014 ✈ KPHX - KSLC

Flight Track Log - Related Links

Times and Time Zones

All times are in EST time to prevent confusion due to time zone crossing. See the SWA2436 flight status page for this flight to view local times or setup timezone preferences in your user account.

Time Position Orientation Groundspeed Altitude Reporting Facility
EST Latitude Longitude Course Direction KTS MPH feet Rate Location/Type
09:44AM 33.4333 -111.9833 82° East 168 193 2,400  Level Phoenix TRACON
09:46AM 33.4500 -111.8333 82° East 283 326 7,500 2,825 Climbing Phoenix TRACON
09:47AM 33.5156 -111.7789 35° Northeast 300 345 11,300 3,692 Climbing Albuquerque Center
09:48AM 33.6053 -111.7722 North 322 371 15,500 3,885 Climbing Albuquerque Center
09:49AM 33.7081 -111.7617 North 341 392 19,200 3,443 Climbing Albuquerque Center
09:50AM 33.8083 -111.7517 North 359 413 22,500 3,295 Climbing Albuquerque Center
09:51AM 33.9200 -111.7411 North 372 428 25,900 2,705 Climbing Albuquerque Center
09:52AM 34.0261 -111.7472 357° North 379 436 28,000 1,033 Climbing Albuquerque Center
09:53AM 34.1336 -111.7694 350° North 390 449 28,000 49 Level Albuquerque Center
09:54AM 34.2358 -111.7908 350° North 393 452 28,100 638 Climbing Albuquerque Center
09:56AM 34.4719 -111.8383 351° North 387 445 30,000 606 Climbing Los Angeles Center
09:57AM 34.5772 -111.8586 351° North 386 444 30,000  Level Los Angeles Center
09:58AM 34.6619 -111.8778 349° North 384 442 30,000  Level Albuquerque Center
09:59AM 34.7686 -111.8994 351° North 386 444 30,000  Level Albuquerque Center
10:00AM 34.8753 -111.9219 350° North 388 447 30,000  Level Albuquerque Center
10:01AM 35.0025 -111.9469 351° North 388 447 30,000 934 Level Albuquerque Center
10:02AM 35.1069 -111.9683 350° North 386 444 31,900 1,967 Climbing Albuquerque Center
10:03AM 35.2061 -111.9894 350° North 374 430 34,000 728 Climbing Albuquerque Center
10:05AM 35.3878 -112.0281 350° North 358 412 34,000 -361 Level Salt Lake Center
10:06AM 35.4986 -112.0494 351° North 357 411 32,900 -656 Descending Albuquerque Center
10:08AM 35.6858 -112.0903 350° North 364 419 32,000 -312 Descending Salt Lake Center
10:09AM 35.7858 -112.1094 351° North 365 420 32,000 -246 Level Salt Lake Center
10:10AM 35.8861 -112.1317 350° North 366 421 31,500 -793 Descending Salt Lake Center
10:11AM 35.9867 -112.1514 351° North 366 421 30,400 -744 Descending Salt Lake Center
10:12AM 36.0906 -112.1586 357° North 370 426 30,000 -197 Descending Salt Lake Center
10:13AM 36.2144 -112.1694 356° North 372 428 30,000  Level Salt Lake Center
10:14AM 36.3178 -112.1792 356° North 373 429 30,000  Level Salt Lake Center
10:15AM 36.4217 -112.1883 356° North 374 430 30,000  Level Salt Lake Center
10:16AM 36.5250 -112.1983 356° North 373 429 30,000  Level Salt Lake Center
10:17AM 36.6297 -112.2072 356° North 375 432 30,000  Level Salt Lake Center
10:18AM 36.7342 -112.2161 356° North 377 434 30,000  Level Salt Lake Center
10:19AM 36.7767 -112.2189 357° North 377 434 30,000  Level Los Angeles Center
10:20AM 36.8749 -112.2276 356° North  Level FlightAware Approximate
10:20AM 36.9450 -112.2358 356° North 380 437 30,000  Level Salt Lake Center
10:21AM 37.0075 -112.2392 358° North 377 434 30,000 -593 Level Los Angeles Center
10:22AM 37.1119 -112.2503 355° North 376 433 29,100 -976 Descending Los Angeles Center
10:23AM 37.2144 -112.2583 356° North 370 426 28,000 -537 Descending Los Angeles Center
10:24AM 37.3167 -112.2689 355° North 370 426 28,000  Level Los Angeles Center
10:24AM 37.3756 -112.2753 355° North 367 422 28,000  Level Salt Lake Center
10:26AM 37.5856 -112.2936 356° North 379 436 28,000  Level Salt Lake Center
10:28AM 37.7508 -112.3114 355° North 372 428 28,000  Level Los Angeles Center
10:29AM 37.8514 -112.3250 354° North 367 422 28,000  Level Los Angeles Center
10:30AM 37.9528 -112.3364 355° North 367 422 28,000  Level Los Angeles Center
10:31AM 38.0947 -112.3536 355° North 368 423 28,000  Level Salt Lake Center
10:32AM 38.1958 -112.3672 354° North 367 422 28,000  Level Salt Lake Center
10:33AM 38.3161 -112.3806 355° North 363 418 28,000  Level Salt Lake Center
10:35AM 38.5175 -112.4067 355° North 364 419 28,000  Level Salt Lake Center
10:36AM 38.6181 -112.4203 354° North 364 419 28,000  Level Salt Lake Center
10:37AM 38.7169 -112.4319 355° North 359 413 28,000  Level Salt Lake Center
10:38AM 38.8169 -112.4442 355° North 360 414 28,000  Level Salt Lake Center
10:41AM 39.1178 -112.4817 15° North 362 417 28,000  Level Salt Lake Center
10:42AM 39.2172 -112.4942 354° North 359 413 28,000  Level Salt Lake Center
10:44AM 39.4344 -112.4622 North 389 448 28,000  Level Salt Lake Center
10:45AM 39.5394 -112.4272 14° North 390 449 28,000 -1,213 Level Salt Lake Center
10:48AM 39.7444 -112.3600 15° North 373 429 24,300 -2,155 Descending Salt Lake Center
10:50AM 39.9536 -112.2881 15° North 352 405 19,200 -2,464 Descending Salt Lake Center
10:50AM 39.9989 -112.2842 North 338 389 18,100 -2,164 Descending Salt Lake Center
10:51AM 40.0433 -112.2589 24° Northeast 333 383 17,000 -1,535 Descending Salt Lake Center
10:51AM 40.0611 -112.2608 355° North 336 387 17,000 -492 Level Salt Lake Center
10:52AM 40.1342 -112.2283 19° North 335 386 16,500 -806 Descending Salt Lake Center
10:52AM 40.1642 -112.2267 North 334 384 16,100 -2,066 Descending Salt Lake Center
10:53AM 40.2250 -112.1986 19° North 337 388 14,400 -2,300 Descending Salt Lake Center
10:53AM 40.2489 -112.1983 North 337 388 13,800 -1,355 Descending Salt Lake Center
10:54AM 40.3147 -112.1667 20° North 335 386 13,000 -787 Descending Salt Lake Center
10:54AM 40.3450 -112.1606 North 328 377 13,000  Level Salt Lake Center
10:55AM 40.4317 -112.1314 14° North 320 368 13,000 -66 Level Salt Lake Center
10:57AM 40.5775 -112.0853 14° North 211 243 12,800 -318 Descending Salt Lake Center
10:58AM 40.6128 -112.0797 North 198 228 12,100 -800 Descending Salt Lake Center
10:58AM 40.6328 -112.0808 358° North 203 234 12,000 -98 Descending Salt Lake Center
10:59AM 40.6792 -112.0831 358° North 198 228 12,000 -162 Level Salt Lake Center
11:00AM 40.7333 -112.0886 356° North 195 224 11,700 -358 Descending Salt Lake Center
11:00AM 40.7364 -112.0939 307° West 197 227 11,600 -689 Descending Salt Lake Center
11:01AM 40.7889 -112.0953 359° North 201 231 11,000 -590 Descending Salt Lake Center
11:01AM 40.7936 -112.1000 323° Northwest 202 232 11,000 -1,424 Level Salt Lake Center
11:02AM 40.8461 -112.1047 356° North 203 234 9,600 -1,474 Descending Salt Lake Center
11:02AM 40.8453 -112.1022 114° Southeast 204 235 9,600 -1,500 Level Salt Lake Center
11:03AM 40.9006 -112.1086 355° North 199 229 8,000 -1,594 Descending Salt Lake Center
11:03AM 40.9053 -112.1103 345° North 198 228 7,900 -1,017 Descending Salt Lake Center
11:05AM 40.9397 -111.9992 68° East 222 255 6,000 -950 Descending Salt Lake Center
11:05AM 40.9406 -111.9994 346° North 223 257 6,000 -182 Level Salt Lake Center
11:06AM 40.8900 -111.9867 169° South 185 213 5,800 -542 Descending Salt Lake Center
11:08AM 40.8153 -111.9792 176° South 119 137 4,400 -732 Descending Salt Lake Center
11:08AM 40.8119 -111.9767 150° Southeast 120 138 4,300 -857 Descending Salt Lake Center
11:10AM 40.7833 -111.9667 159° South  Level FlightAware Approximate
11:17AM 40.7884 -111.9778 159° South  Level Estimated